TimeEDT,TemperatureF,Dew PointF,Humidity,Sea Level PressureIn,VisibilityMPH,Wind Direction,Wind SpeedMPH,Gust SpeedMPH,PrecipitationIn,Events,Conditions,WindDirDegrees,DateUTC
12:53 AM,48.0,43.0,83,30.21,10.0,Calm,Calm,-,N/A,,Clear,0,2013-09-19 04:53:00
1:53 AM,48.0,43.0,83,30.21,10.0,Calm,Calm,-,N/A,,Clear,0,2013-09-19 05:53:00
2:53 AM,46.0,43.0,89,30.19,10.0,Calm,Calm,-,N/A,,Clear,0,2013-09-19 06:53:00
3:53 AM,45.0,43.0,93,30.19,8.0,Calm,Calm,-,N/A,,Clear,0,2013-09-19 07:53:00
4:53 AM,44.1,43.0,96,30.19,6.0,East,3.5,-,N/A,,Clear,100,2013-09-19 08:53:00
5:53 AM,44.1,42.1,93,30.19,9.0,Calm,Calm,-,N/A,,Clear,0,2013-09-19 09:53:00
6:53 AM,42.1,41.0,96,30.19,8.0,Calm,Calm,-,N/A,,Clear,0,2013-09-19 10:53:00
7:53 AM,46.9,45.0,93,30.20,8.0,Calm,Calm,-,N/A,,Clear,0,2013-09-19 11:53:00
8:53 AM,53.1,48.9,86,30.19,8.0,Calm,Calm,-,N/A,,Clear,0,2013-09-19 12:53:00
9:53 AM,61.0,52.0,72,30.20,10.0,Calm,Calm,-,N/A,,Clear,0,2013-09-19 13:53:00
10:53 AM,64.9,50.0,58,30.19,10.0,Variable,4.6,-,N/A,,Clear,0,2013-09-19 14:53:00
11:53 AM,69.1,50.0,51,30.19,10.0,Calm,Calm,-,N/A,,Clear,0,2013-09-19 15:53:00
12:53 PM,71.1,50.0,47,30.16,10.0,West,5.8,-,N/A,,Clear,280,2013-09-19 16:53:00
1:53 PM,72.0,50.0,46,30.13,10.0,Calm,Calm,-,N/A,,Clear,0,2013-09-19 17:53:00
2:53 PM,73.9,50.0,43,30.11,10.0,SW,5.8,-,N/A,,Clear,230,2013-09-19 18:53:00
3:53 PM,75.0,50.0,41,30.09,10.0,Variable,3.5,-,N/A,,Clear,0,2013-09-19 19:53:00
4:53 PM,75.0,51.1,43,30.08,10.0,SE,4.6,-,N/A,,Clear,140,2013-09-19 20:53:00
5:53 PM,73.9,51.1,45,30.09,10.0,WNW,4.6,-,N/A,,Clear,300,2013-09-19 21:53:00
6:53 PM,71.1,53.1,53,30.09,10.0,Calm,Calm,-,N/A,,Partly Cloudy,0,2013-09-19 22:53:00
7:53 PM,66.9,55.0,66,30.11,10.0,South,4.6,-,N/A,,Clear,180,2013-09-19 23:53:00
8:53 PM,63.0,55.0,75,30.11,10.0,ESE,3.5,-,N/A,,Clear,120,2013-09-20 00:53:00
9:53 PM,60.1,54.0,80,30.10,10.0,Calm,Calm,-,N/A,,Clear,0,2013-09-20 01:53:00
10:53 PM,59.0,54.0,83,30.09,9.0,Calm,Calm,-,N/A,,Clear,0,2013-09-20 02:53:00
11:53 PM,55.9,53.1,90,30.09,7.0,Calm,Calm,-,N/A,,Clear,0,2013-09-20 03:53:00